• Join FlightAware (Why Join?)
  • Login
  • US Flag 
12:03AM EDT


 

Airport Tracker/Info


-or-


 

Live Flight TrackerFlight Track Log ✈ RPA3321 ✈ 28-Jun-2013 ✈ KALB - KDCA

Flight Track Log - Related Links

Times and Time Zones

All times are in EDT time to prevent confusion due to time zone crossing. See the RPA3321 flight status page for this flight to view local times or setup timezone preferences in your user account.

Time Position Orientation Groundspeed Altitude Reporting Facility
EDT Latitude Longitude Course Direction KTS MPH feet Rate Location/Type
05:43AM 42.7319 -73.8081 169° South 126 145 2,200  Level Boston Center
05:44AM 42.7131 -73.8106 186° South 154 177 3,000 2,640 Climbing Boston Center
05:45AM 42.7539 -73.8933 304° West 234 269 7,200 3,000 Climbing Boston Center
05:46AM 42.4324 -74.0827 180° South  Level Estimated
05:46AM 42.7925 -73.9681 305° West 239 275 10,200  Level Boston Center
05:47AM 42.3531 -74.1524 170° South  Level Estimated
05:47AM 42.7994 -74.0614 276° West 239 275 13,300  Level Boston Center
05:48AM 42.2738 -74.2220 180° South  Level Estimated
05:48AM 42.7858 -74.1431 257° West 239 275 15,600  Level Boston Center
05:49AM 42.1944 -74.2914 169° South  Level Estimated
05:49AM 42.6986 -74.1153 167° South 237 273 17,400  Level Boston Center
05:50AM 42.6181 -74.0736 159° South 290 334 19,400 1,800 Climbing Boston Center
05:51AM 42.5311 -74.0236 157° South 326 375 21,000 1,980 Climbing Boston Center
05:52AM 42.4381 -73.9706 157° South 352 405 23,400 2,280 Climbing Boston Center
05:53AM 42.3469 -73.9206 158° South 352 405 25,600 1,920 Climbing Boston Center
05:54AM 42.2558 -73.8706 158° South 352 405 27,300 1,200 Climbing Boston Center
05:55AM 42.1586 -73.8208 159° South 358 412 28,000 300 Climbing Boston Center
05:56AM 42.0561 -73.8494 192° South 358 412 28,000  Level Boston Center
05:57AM 41.9617 -73.8947 200° South 358 412 28,000  Level Boston Center
05:58AM 41.8653 -73.9342 197° South 358 412 28,000  Level Boston Center
06:00AM 41.6983 -74.0078 198° South 365 420 28,000  Level New York Center
06:01AM 41.6014 -74.0472 197° South 365 420 28,000  Level New York Center
06:02AM 41.5064 -74.0925 200° South 354 407 28,000  Level New York Center
06:03AM 41.4094 -74.1347 198° South 354 407 28,000  Level New York Center
06:04AM 41.3167 -74.1742 198° South 349 402 28,000  Level New York Center
06:05AM 41.2283 -74.2083 196° South 349 402 28,000  Level New York Center
06:06AM 41.1353 -74.2506 199° South 362 417 28,000  Level New York Center
06:07AM 41.0403 -74.2922 198° South 368 423 28,000  Level New York Center
06:08AM 40.9433 -74.3314 197° South 368 423 28,000 -120 Level New York Center
06:09AM 40.8503 -74.3758 200° South 368 423 27,800 -540 Descending New York Center
06:10AM 40.7606 -74.4478 211° Southwest 368 423 27,000 -900 Descending New York Center
06:11AM 40.6903 -74.5644 232° Southwest 384 442 26,100 -900 Descending New York Center
06:12AM 40.6219 -74.6808 232° Southwest 399 459 25,200 -960 Descending New York Center
06:13AM 40.5517 -74.7861 229° Southwest 399 459 24,200 -1,080 Descending New York Center
06:14AM 40.4769 -74.8936 228° Southwest 399 459 23,100 -1,080 Descending New York Center
06:15AM 40.4047 -74.9983 228° Southwest 399 459 22,100 -1,020 Descending New York Center
06:16AM 40.3322 -75.1000 227° Southwest 399 459 21,100 -1,020 Descending New York Center
06:17AM 40.2619 -75.1964 226° Southwest 388 447 20,100 -600 Descending New York Center
06:18AM 40.1847 -75.3081 228° Southwest 378 435 20,000 -60 Descending New York Center
06:19AM 40.1142 -75.4042 226° Southwest 378 435 20,000  Level New York Center
06:20AM 40.0436 -75.5050 228° Southwest 378 435 20,000  Level New York Center
06:21AM 39.9708 -75.6031 226° Southwest 383 441 20,000  Level New York Center
06:22AM 39.9019 -75.7067 229° Southwest 383 441 20,000  Level New York Center
06:23AM 39.8428 -75.8186 235° Southwest 383 441 20,000  Level New York Center
06:24AM 39.7856 -75.9361 238° Southwest 383 441 20,000 -300 Level New York Center
06:25AM 39.7264 -76.0481 236° Southwest 383 441 19,400 -1,500 Descending New York Center
06:27AM 39.6667 -76.2667 251° West 336 387 15,600 -1,860 Descending Potomac TRACON
06:28AM 39.6500 -76.3833 260° West 322 371 13,900 -1,380 Descending Potomac TRACON
06:29AM 39.5833 -76.4500 218° Southwest 317 365 13,000 -780 Descending Potomac TRACON
06:30AM 39.5167 -76.4833 201° Southwest 318 366 12,500 -540 Descending Potomac TRACON
06:31AM 39.4333 -76.5333 205° Southwest 318 366 12,000 -300 Descending Potomac TRACON
06:32AM 39.3667 -76.5667 201° Southwest 319 367 12,000 -600 Level Potomac TRACON
06:33AM 39.2667 -76.6167 201° Southwest 318 366 10,800 -960 Descending Potomac TRACON
06:34AM 39.2000 -76.6500 201° Southwest 302 348 10,200 -480 Descending Potomac TRACON
06:34AM 39.1500 -76.7000 218° Southwest 270 311 10,000 -120 Descending Potomac TRACON
06:35AM 39.1333 -76.8000 258° West 268 308 10,000 -60 Level Potomac TRACON
06:36AM 39.1000 -76.8667 237° Southwest 266 306 9,900 -840 Descending Potomac TRACON
06:37AM 39.0833 -76.9500 256° West 266 306 8,500 -960 Descending Potomac TRACON
06:38AM 39.0500 -77.0333 243° Southwest 236 272 8,000 -780 Descending Potomac TRACON
06:39AM 39.0667 -77.1000 288° West 203 234 7,100 -1,200 Descending Potomac TRACON
06:40AM 39.0500 -77.1667 252° West 186 214 5,800 -1,140 Descending Potomac TRACON
06:41AM 39.0333 -77.2167 247° West 207 238 4,900 -1,140 Descending Potomac TRACON
06:42AM 38.9833 -77.1833 153° Southeast 215 247 3,700 -1,380 Descending Potomac TRACON